Portada
METAR-TAF:

METAR-TAF

Aeroports :

Tottori, Japó

latitud: 35-32N, longitud: 134-10E, altitud: 15 m

Observació

L'informe es va fer fa 53 minuts, a les 10:00 UTC
Vent 11 kt del Est
Temperatura 7°C
Humitat 66%
Pressió 1027 hPa
Visibilitat 10 km o més
Escasses núvols a una alçada de 3000 ft
Núvols disperses a una alçada de 13000 ft
Cel ennuvolat a una alçada de 15000 ft

METAR: RJOR 251000Z 08011KT 9999 FEW030 SCT130 BKN150 07/01 Q1027

Hora: 19:53 (10:53 UTC)


TAF: manca

Observacions i pronòstics meteorològics de més de 4000 aeroports (METAR i TAF).

Les estacions disponibles són els punts grocs i vermells al mapa.

Posi el ratolí al punt desitjat per veure el nom de l'estació.

Feu clic per veure les observacions i els pronòstics meteorològics.

Per canviar el mapa: feu clic els botons verds amb una creu de color negre per apropar; al botó verd amb un guió per allunyar la imatge; o en les fletxes verdes per a mapes adjacents.


METAR-TAF: